GFSFLT1_con_3kmhel_141.txt.gz
Helicity
50 48 92 141 62 26 15 36 65 77 63 117 215 140 184 214 182 166 114 163 159 134 111 118 109 78 81 92 105 79 67 57
119 174 93 87 84 59 77 109 107 63 85 86 139 212 172 196 252 207 166 130 176 182 161 175 166 122 90 131 102 87 74 76
72 82 51 62 56 65 139 117 106 283 137 97 116 138 148 154 238 280 242 172 154 220 216 223 205 176 134 137 106 96 94 153
74 36 39 29 68 81 53 92 92 165 484 130 127 122 133 160 162 239 282 221 135 201 225 252 264 216 210 203 140 99 142 191
49 16 23 19 46 26 31 59 87 52 112 369 125 115 118 164 145 174 274 224 160 162 217 264 286 256 245 219 173 138 169 221
7 20 32 -5 -12 43 60 43 59 52 56 315 140 133 145 147 113 98 160 201 206 160 208 208 270 270 263 264 202 186 216 187
-10 10 -4 -17 8 70 64 83 93 96 121 201 131 90 143 226 154 139 137 181 229 166 160 186 242 232 262 267 220 223 231 184
-30 -42 -49 -28 44 149 74 143 137 169 279 171 117 95 62 171 191 140 149 178 171 170 157 156 186 221 229 258 228 234 233 211
-25 -60 -10 40 66 152 107 205 268 239 406 47 83 74 61 111 160 166 275 257 202 102 154 136 169 218 243 271 291 223 220 226
-65 -47 -15 64 57 134 103 235 318 361 225 108 45 59 101 83 103 120 197 259 117 99 150 159 144 217 224 257 293 255 255 234
-61 -47 -18 79 46 92 121 280 295 396 350 221 54 40 81 52 90 121 140 186 251 155 177 188 193 255 237 248 262 231 219 243
-36 -36 15 75 21 118 183 350 390 394 413 360 283 108 10 40 91 109 47 50 133 155 105 169 217 249 247 258 277 249 190 182
-30 -27 12 35 28 194 290 363 468 485 411 346 368 358 309 232 200 196 83 103 134 141 98 150 197 212 215 265 282 227 214 203
-35 -11 44 34 38 266 425 422 497 478 393 319 361 323 419 377 334 281 271 161 108 86 99 107 108 171 224 233 273 278 251 258
-42 -22 29 4 31 202 456 523 448 514 414 307 351 399 382 365 383 360 298 295 192 158 189 159 161 240 263 258 287 327 361 308
-29 -27 -13 -9 19 111 351 568 434 462 345 293 336 353 336 282 279 386 398 341 322 367 175 217 236 246 312 346 334 350 319 348
-34 -13 -6 4 -29 10 95 334 450 453 319 263 278 283 320 298 232 284 379 421 360 347 456 284 217 376 554 352 280 284 295 277
-39 -33 -18 -12 -17 -11 14 77 170 310 315 219 223 210 401 369 250 231 304 300 388 233 327 326 387 374 450 392 297 234 219 233
-28 -29 -17 -6 -2 -10 10 35 17 10 185 211 189 237 417 329 318 280 230 281 306 371 362 234 233 361 440 409 282 244 199 296

GFSFLT1_con_3kmhel_147.txt.gz
Helicity
102 14 -6 -6 -28 -33 -27 -8 25 8 -81 -94 -99 -75 40 45 100 114 133 100 175 220 188 136 180 204 174 181 211 196 203 101
24 8 24 19 20 -2 -16 -28 -9 -17 -32 -67 -97 -50 -65 50 36 147 219 118 76 198 202 189 210 257 212 213 253 240 186 142
48 16 13 8 2 5 6 3 19 5 -5 17 10 14 33 -18 64 56 125 228 86 94 166 232 223 281 299 257 260 275 209 188
41 17 0 2 15 15 16 14 28 25 20 37 59 105 95 57 24 33 99 133 115 79 100 187 255 289 331 296 263 247 215 189
79 34 23 20 46 45 39 41 38 29 39 43 93 103 99 76 66 49 3 118 218 55 71 133 209 310 306 377 307 271 238 187
77 45 51 50 60 39 53 35 61 37 67 46 44 47 52 30 24 32 53 10 114 146 38 66 84 266 325 381 350 269 253 218
3 20 84 50 53 53 46 35 70 56 52 30 34 65 82 95 92 5 10 14 81 86 95 50 230 130 222 359 410 350 283 224
31 72 75 53 52 58 55 59 64 92 35 35 59 81 54 62 59 53 -14 47 38 134 144 181 135 295 368 301 368 385 306 274
29 78 59 37 47 59 58 52 64 114 58 73 100 86 90 92 63 71 73 62 74 121 140 137 266 274 132 130 272 375 364 286
45 40 32 5 33 64 67 60 84 133 80 164 173 133 112 105 86 77 14 94 132 87 27 90 188 80 124 186 241 344 333 324
42 34 20 6 40 81 64 61 85 118 106 145 213 192 185 86 82 66 64 92 68 65 -6 -13 66 133 206 -10 116 248 360 320
35 35 15 21 54 82 65 49 51 86 91 149 191 214 190 86 86 114 134 83 -4 -25 -19 35 14 139 94 46 23 18 314 262
22 25 15 29 34 54 72 41 67 86 49 142 115 137 155 67 148 223 151 254 92 1 56 -4 17 77 184 149 -87 169 199 201
14 11 11 17 20 24 49 30 61 66 28 68 144 96 199 109 106 189 132 174 227 179 -41 12 101 85 98 190 174 52 167 180
8 3 5 11 7 14 40 31 48 57 35 20 123 122 92 121 96 125 128 111 165 196 87 94 100 86 50 27 51 79 121 160
12 2 9 -1 -13 14 39 9 26 44 44 -3 62 53 115 133 126 128 53 107 193 157 187 271 327 305 168 339 176 32 124 170
25 9 6 -16 -5 16 36 3 -19 27 47 29 -13 52 41 158 214 204 114 126 156 149 151 155 302 357 365 268 190 108 121 191
28 9 10 -2 -6 7 28 15 -25 1 20 39 17 15 50 93 122 219 194 149 186 156 127 117 95 153 335 286 219 194 145 126
26 22 19 0 -13 -1 27 19 -10 -14 15 21 44 14 30 53 61 142 198 160 186 238 148 164 171 122 230 330 343 136 86 218

GFSFLT1_con_3kmhel_153.txt.gz
Helicity
337 264 217 150 98 24 -6 0 2 19 -1 -2 -17 -36 -39 -43 -38 -21 -7 -2 78 108 118 160 140 161 122 184 199 215 217 190
341 273 220 158 114 33 -23 -6 27 11 -17 -14 0 12 14 -1 16 7 -3 11 50 131 139 141 184 186 204 97 169 241 206 229
361 317 265 160 90 47 26 15 22 -13 -16 10 -1 -15 -20 9 21 75 114 94 80 99 133 150 141 174 207 203 128 188 221 263
370 332 242 188 173 109 60 21 27 13 53 43 29 7 6 -2 70 52 71 75 78 79 103 116 131 124 179 238 165 144 222 280
407 366 245 167 89 22 26 39 3 41 51 37 13 -1 23 19 73 40 70 64 71 57 89 124 110 106 140 186 219 150 156 263
331 249 171 98 89 77 48 43 36 50 46 25 16 21 39 45 73 17 79 86 57 29 41 92 125 100 98 128 176 170 151 208
293 219 188 140 94 70 54 32 47 34 37 26 31 40 47 29 51 1 91 73 29 12 51 81 109 128 138 115 128 161 165 157
274 228 179 120 79 54 18 40 41 40 41 48 52 52 53 61 49 58 35 22 18 64 82 137 109 145 166 129 101 135 140 128
188 150 88 38 33 8 24 25 35 31 33 47 59 58 73 83 93 81 35 66 81 45 84 106 93 80 124 148 103 110 155 234
117 76 29 9 -10 4 -5 4 20 18 19 40 47 64 67 76 88 96 47 33 32 90 43 15 37 100 123 94 99 125 142 145
81 54 5 -37 3 14 11 13 6 9 24 31 38 59 69 85 117 130 55 53 53 44 18 -9 -17 54 69 38 83 137 157 185
51 -7 -7 -1 -2 14 17 13 18 32 24 20 33 60 65 82 108 129 76 63 76 -11 1 -56 -27 -7 49 111 112 174 170 174
38 31 13 -9 -13 28 9 15 19 20 13 6 27 49 73 84 91 107 104 66 46 -4 23 -38 1 -22 13 63 126 167 177 152
79 36 -8 -32 7 28 18 8 12 10 14 7 19 38 56 78 85 83 92 53 64 73 -79 79 38 5 34 17 38 123 161 167
76 19 -5 0 16 1 8 16 7 10 15 12 17 30 57 65 71 73 71 59 28 73 -5 -15 -6 78 75 125 134 79 126 189
49 26 3 17 8 6 7 10 21 25 27 24 18 27 50 73 67 67 72 68 35 34 27 -47 12 27 71 139 124 84 133 149
67 65 40 42 17 18 16 18 32 27 35 29 21 27 44 64 70 62 62 72 31 -8 27 7 17 17 132 245 141 7 46 83
92 71 66 29 20 23 31 29 22 20 18 27 29 29 37 54 65 56 48 68 49 6 9 -4 81 67 156 166 198 18 27 102
108 84 46 39 29 34 23 18 10 15 25 29 28 24 20 50 51 62 57 74 58 22 38 13 59 59 169 280 214 106 59 106

GFSFLT1_con_3kmhel_156.txt.gz
Helicity
327 332 276 244 202 122 48 7 -19 -61 -65 -24 -8 5 30 31 39 10 26 39 58 89 126 130 141 171 185 176 223 168 189 158
357 328 281 266 214 134 38 9 -17 -25 -29 -41 -14 4 44 55 46 42 27 25 23 26 86 131 146 151 175 224 190 235 185 192
358 352 323 266 176 120 83 46 20 -4 -19 -4 -17 1 11 22 5 9 25 41 80 94 80 90 107 107 124 163 246 181 169 156
383 369 332 261 210 156 90 41 14 3 10 9 2 23 20 -1 31 27 11 8 32 120 106 100 97 88 82 112 161 212 210 103
387 359 309 259 186 133 87 77 50 22 -2 14 -4 -16 1 24 28 38 43 0 17 159 103 95 75 95 87 87 107 157 156 172
349 306 272 234 198 182 123 62 28 21 21 1 9 21 31 36 34 37 15 1 42 137 51 24 44 81 111 102 86 105 134 137
293 261 202 175 140 104 64 62 42 33 32 21 31 26 22 29 33 33 18 28 56 96 13 2 35 78 92 111 119 120 128 131
269 241 206 176 153 120 83 63 53 34 28 31 25 16 16 23 25 23 37 38 65 79 -3 23 29 20 72 142 156 127 124 158
233 215 153 117 107 96 66 39 30 19 23 30 24 5 15 19 27 37 61 75 72 72 36 21 -9 43 119 116 155 155 121 109
209 163 129 105 88 66 36 20 9 8 10 19 14 9 14 15 26 40 60 67 95 83 64 29 20 55 79 98 129 95 131 109
165 143 100 68 44 20 2 -1 5 10 9 6 -13 -1 8 19 19 28 43 64 90 95 66 31 18 20 13 64 116 89 187 113
143 113 74 44 20 15 27 26 20 15 12 12 -7 2 5 13 18 27 41 52 90 99 77 42 28 34 29 26 41 38 161 73
123 89 51 46 35 35 39 21 19 13 20 18 11 1 2 7 13 25 29 40 78 100 87 83 30 34 4 44 25 10 56 68
113 95 61 28 33 33 9 11 13 11 23 16 14 11 2 14 14 18 21 35 49 94 90 90 42 50 36 76 -58 -18 -1 90
145 110 33 33 22 6 13 20 10 10 16 18 31 30 17 16 22 19 21 31 42 75 91 88 79 47 21 17 8 27 -11 2
150 87 62 39 34 22 24 16 17 16 21 30 41 29 27 31 33 26 21 20 37 58 79 89 106 52 47 50 18 -20 -17 -29
181 113 69 70 42 43 24 11 19 21 22 30 23 24 27 30 34 33 15 11 26 48 77 96 103 67 83 67 34 -11 2 -1
171 104 106 77 52 15 6 20 26 20 21 18 14 14 16 16 25 25 15 21 15 37 68 95 107 81 97 105 110 1 17 11
157 136 102 64 26 26 28 23 19 29 28 15 4 3 8 12 20 17 7 22 15 20 48 95 105 108 106 134 116 36 59 16

GFSFLT1_con_3kmhel_159.txt.gz
Helicity
221 243 246 216 207 182 154 118 96 67 19 -15 -25 1 19 32 45 37 30 24 26 24 28 49 70 85 105 165 196 196 174 254
267 278 273 248 243 223 178 121 88 39 -10 -33 -27 12 5 45 53 49 40 40 33 34 37 47 53 82 93 115 153 180 208 192
279 288 291 263 254 236 177 139 79 10 -26 -39 -38 -19 -14 19 32 35 24 26 18 18 44 60 74 116 158 160 142 135 134 183
266 286 300 290 286 246 171 109 62 28 31 18 21 -3 9 28 40 25 30 22 19 23 29 39 84 124 157 167 106 91 93 92
316 306 304 290 266 200 131 98 69 55 45 32 15 -9 10 22 1 -2 12 17 23 14 21 43 74 133 159 112 73 90 117 62
333 327 311 270 211 167 136 94 73 63 50 23 13 23 22 6 2 0 11 21 17 17 11 27 30 133 147 93 60 73 112 115
344 302 248 209 178 156 117 104 98 73 38 26 26 31 30 21 2 -16 -10 7 18 28 26 31 25 95 123 87 88 66 68 103
289 251 232 208 187 158 126 112 81 40 24 23 30 24 10 6 -6 -14 -9 1 11 23 25 27 48 49 69 64 63 52 50 43
269 252 206 174 152 131 105 82 56 39 32 35 28 9 -2 -12 -3 -9 -9 -1 16 8 23 24 38 45 65 47 55 61 38 90
218 207 168 140 127 108 84 59 46 40 37 37 41 28 14 2 7 -3 -4 2 13 12 21 23 43 60 52 61 54 31 66 61
181 165 142 117 96 85 68 49 39 22 30 34 31 22 17 7 6 7 10 11 8 10 19 32 44 58 64 60 45 46 65 82
153 148 129 111 107 96 73 48 36 30 43 37 26 27 28 19 13 14 6 5 0 5 2 17 41 53 65 61 59 43 71 87
145 144 131 123 102 92 63 43 40 39 42 35 31 30 33 28 21 24 9 7 7 3 3 9 15 44 60 68 67 46 63 67
200 198 142 119 95 81 70 57 62 51 39 38 34 27 28 28 21 26 24 17 16 15 11 14 9 34 48 64 85 76 56 56
231 171 143 123 95 97 68 63 58 46 37 28 37 33 23 24 20 25 21 14 13 17 19 15 12 27 39 62 78 79 62 66
238 198 150 124 107 86 73 63 48 41 38 41 37 28 20 26 28 32 30 21 19 14 16 30 21 26 49 79 80 80 49 52
272 228 178 152 82 70 63 51 54 46 38 37 32 32 30 29 29 28 24 18 25 24 27 16 18 36 53 91 103 82 61 30
279 257 128 80 59 50 50 58 46 38 37 34 32 34 28 25 24 23 19 12 11 15 21 18 24 25 63 97 110 103 74 51
249 132 103 89 70 62 61 52 49 40 38 36 29 25 22 18 22 19 6 4 -8 -17 2 10 14 23 72 122 158 115 88 78